Location: Kellogg
(38.0159°N, 90.0546°W)
Time: 20:40:00
(UTC+00:00)

Transit 4A - Pass Details

Date: 17 September 2024
Orbit: 865 x 978 km, 66.8° (Epoch: 11 October)

Event Time Altitude Azimuth Distance (km) Brightness Sun altitude
Rises 08:24:47 0° 214° (SW) 3,437 - -37.1°
Reaches altitude 10° 08:27:15 10° 217° (SW) 2,510 - -36.7°
Maximum altitude 08:33:01 68° 300° (WNW) 950 - -35.8°
Exits shadow 08:35:29 36° 12° (NNE) 1,386 9.0 -35.4°
Drops below altitude 10° 08:38:58 10° 23° (NNE) 2,582 10.8 -34.9°
Sets 08:41:32 0° 26° (NNE) 3,544 11.7 -34.5°
